RYR22TJ LFBI-EGSS

Flight info

Callsign RYR22TJ
Flight time 1h 2m
Altitude 34000
Route ABSIE R66 NTS UY110 UPALO UT510 DIKRO UM185 TELTU
Aircraft B738/M-SDE2E3FGHIRWXY/LB1

Departure

Time 2026-05-07 17:11
Airport Poitiers-Biard Airport (LFBI)

Arrival

Time 2026-05-07 18:13
Airport London Stansted Airport (EGSS)
Time Latitude Longitude Altitude Speed Heading
2026-05-07 16:53 46.58588 0.31010 430 ft 0 kts 256°
2026-05-07 17:06 46.58587 0.31005 430 ft 6 kts 255°
2026-05-07 17:06 46.58618 0.30917 429 ft 7 kts 322°
2026-05-07 17:06 46.58649 0.30870 426 ft 9 kts 306°
2026-05-07 17:07 46.58665 0.30839 427 ft 10 kts 306°
2026-05-07 17:07 46.58702 0.30763 421 ft 8 kts 304°
2026-05-07 17:07 46.58719 0.30686 424 ft 9 kts 253°
2026-05-07 17:07 46.58674 0.30624 419 ft 10 kts 211°
2026-05-07 17:08 46.58611 0.30567 416 ft 12 kts 212°
2026-05-07 17:08 46.58543 0.30508 421 ft 11 kts 211°
2026-05-07 17:08 46.58477 0.30451 417 ft 11 kts 209°
2026-05-07 17:08 46.58402 0.30390 414 ft 14 kts 210°
2026-05-07 17:09 46.58289 0.30295 417 ft 23 kts 213°
2026-05-07 17:09 46.58123 0.30150 420 ft 31 kts 211°
2026-05-07 17:09 46.57985 0.30077 427 ft 11 kts 200°
2026-05-07 17:09 46.57981 0.30034 426 ft 3 kts 356°
2026-05-07 17:10 46.58022 0.30065 424 ft 15 kts 32°
2026-05-07 17:10 46.58295 0.30298 415 ft 81 kts 30°
2026-05-07 17:10 46.58968 0.30875 421 ft 140 kts 31°
2026-05-07 17:10 46.59868 0.31637 831 ft 156 kts 30°
2026-05-07 17:11 46.60823 0.32423 1596 ft 156 kts 34°
2026-05-07 17:11 46.61746 0.33227 2229 ft 161 kts 33°
2026-05-07 17:11 46.62787 0.34136 2525 ft 191 kts 33°
2026-05-07 17:11 46.64002 0.35194 2779 ft 213 kts 33°
2026-05-07 17:12 46.65491 0.35880 3002 ft 238 kts
2026-05-07 17:12 46.67114 0.35268 3442 ft 255 kts 329°
2026-05-07 17:12 46.68499 0.33509 3917 ft 271 kts 317°
2026-05-07 17:12 46.69854 0.31577 4710 ft 274 kts 316°
2026-05-07 17:13 46.71206 0.29625 5577 ft 274 kts 315°
2026-05-07 17:13 46.72564 0.27656 6379 ft 277 kts 314°
2026-05-07 17:13 46.73935 0.25663 7182 ft 279 kts 313°
2026-05-07 17:13 46.75322 0.23647 7995 ft 283 kts 313°
2026-05-07 17:14 46.76716 0.21619 8891 ft 284 kts 313°
2026-05-07 17:14 46.78122 0.19575 9769 ft 287 kts 313°
2026-05-07 17:14 46.79553 0.17495 10420 ft 298 kts 313°
2026-05-07 17:14 46.81060 0.15299 10644 ft 322 kts 313°
2026-05-07 17:15 46.82675 0.12946 11236 ft 332 kts 313°
2026-05-07 17:15 46.84324 0.10546 12050 ft 336 kts 313°
2026-05-07 17:15 46.85986 0.08129 12935 ft 339 kts 313°
2026-05-07 17:15 46.87671 0.05675 13842 ft 344 kts 313°
2026-05-07 17:16 46.89377 0.03191 14658 ft 349 kts 313°
2026-05-07 17:16 46.91109 0.00661 15517 ft 354 kts 313°
2026-05-07 17:16 46.92873 -0.01919 16341 ft 360 kts 313°
2026-05-07 17:16 46.94655 -0.04525 17128 ft 364 kts 313°
2026-05-07 17:17 46.96457 -0.07163 17892 ft 369 kts 313°
2026-05-07 17:17 46.98287 -0.09847 18581 ft 375 kts 312°
2026-05-07 17:17 47.00185 -0.12501 19263 ft 380 kts 319°
2026-05-07 17:17 47.02461 -0.14524 19968 ft 387 kts 335°
2026-05-07 17:18 47.05053 -0.15690 20680 ft 392 kts 347°
2026-05-07 17:18 47.07754 -0.16404 21352 ft 396 kts 348°
2026-05-07 17:18 47.10490 -0.17090 21992 ft 401 kts 349°
2026-05-07 17:18 47.13223 -0.17769 22628 ft 405 kts 348°
2026-05-07 17:19 47.16010 -0.18471 23271 ft 408 kts 348°
2026-05-07 17:19 47.18828 -0.19192 23845 ft 412 kts 348°
2026-05-07 17:19 47.21665 -0.19928 24363 ft 415 kts 348°
2026-05-07 17:19 47.24521 -0.20676 24912 ft 418 kts 348°
2026-05-07 17:20 47.27393 -0.21435 25433 ft 421 kts 348°
2026-05-07 17:20 47.30302 -0.22206 25948 ft 424 kts 348°
2026-05-07 17:20 47.33218 -0.22981 26436 ft 427 kts 348°
2026-05-07 17:20 47.36154 -0.23763 26935 ft 430 kts 348°
2026-05-07 17:21 47.39069 -0.24541 27410 ft 433 kts 348°
2026-05-07 17:21 47.42079 -0.25344 27916 ft 435 kts 348°
2026-05-07 17:21 47.45064 -0.26142 28454 ft 436 kts 348°
2026-05-07 17:21 47.48043 -0.26937 29100 ft 434 kts 348°
2026-05-07 17:22 47.50966 -0.27719 29813 ft 431 kts 348°
2026-05-07 17:22 47.53918 -0.28509 30393 ft 429 kts 347°
2026-05-07 17:22 47.56861 -0.29299 30850 ft 430 kts 347°
2026-05-07 17:22 47.59812 -0.30093 31296 ft 431 kts 347°
2026-05-07 17:23 47.62761 -0.30886 31803 ft 430 kts 347°
2026-05-07 17:23 47.65697 -0.31676 32307 ft 428 kts 347°
2026-05-07 17:23 47.68630 -0.32467 32767 ft 428 kts 346°
2026-05-07 17:23 47.71565 -0.33259 33213 ft 429 kts 346°
2026-05-07 17:24 47.74494 -0.34051 33680 ft 428 kts 346°
2026-05-07 17:24 47.77425 -0.34844 34003 ft 430 kts 346°
2026-05-07 17:24 47.83362 -0.36455 33984 ft 430 kts 346°
2026-05-07 17:25 47.89178 -0.38030 33990 ft 422 kts 346°
2026-05-07 17:25 47.94990 -0.39613 34000 ft 426 kts 346°
2026-05-07 17:26 48.00846 -0.41213 34000 ft 429 kts 346°
2026-05-07 17:26 48.06729 -0.42822 33999 ft 430 kts 347°
2026-05-07 17:27 48.12560 -0.44419 33984 ft 427 kts 347°
2026-05-07 17:27 48.18384 -0.46018 33988 ft 424 kts 347°
2026-05-07 17:28 48.24169 -0.47611 34000 ft 421 kts 347°
2026-05-07 17:28 48.29923 -0.49199 33991 ft 419 kts 347°
2026-05-07 17:29 48.35655 -0.50786 33995 ft 418 kts 347°
2026-05-07 17:29 48.41378 -0.52373 33997 ft 419 kts 347°
2026-05-07 17:30 48.47120 -0.53970 34004 ft 420 kts 347°
2026-05-07 17:30 48.52883 -0.55575 33995 ft 421 kts 347°
2026-05-07 17:31 48.58644 -0.57184 34000 ft 421 kts 347°
2026-05-07 17:31 48.64378 -0.58788 33996 ft 422 kts 347°
2026-05-07 17:32 48.70149 -0.60407 33999 ft 422 kts 347°
2026-05-07 17:32 48.74987 -0.61767 33998 ft 421 kts 347°
2026-05-07 17:33 48.81685 -0.63654 34000 ft 421 kts 347°
2026-05-07 17:33 48.87440 -0.65279 34002 ft 420 kts 347°
2026-05-07 17:34 48.93190 -0.66907 34013 ft 420 kts 347°
2026-05-07 17:34 48.98901 -0.68528 34010 ft 420 kts 347°
2026-05-07 17:35 49.04649 -0.70163 34014 ft 420 kts 347°
2026-05-07 17:35 49.10395 -0.71801 34024 ft 420 kts 347°
2026-05-07 17:36 49.16138 -0.73443 34010 ft 420 kts 347°
2026-05-07 17:36 49.21877 -0.75087 34020 ft 420 kts 347°
2026-05-07 17:37 49.27627 -0.76738 34011 ft 420 kts 347°
2026-05-07 17:37 49.33359 -0.78388 34021 ft 419 kts 347°
2026-05-07 17:38 49.39095 -0.80043 34012 ft 419 kts 347°
2026-05-07 17:38 49.43864 -0.81422 34017 ft 419 kts 347°
2026-05-07 17:39 49.49591 -0.83082 34019 ft 419 kts 347°
2026-05-07 17:39 49.55313 -0.84744 34031 ft 418 kts 347°
2026-05-07 17:40 49.61038 -0.86411 34018 ft 418 kts 347°
2026-05-07 17:40 49.66751 -0.88079 34020 ft 418 kts 347°
2026-05-07 17:41 49.72461 -0.89749 34027 ft 417 kts 347°
2026-05-07 17:41 49.75338 -0.90476 33697 ft 420 kts 353°
2026-05-07 17:41 49.78250 -0.90508 33348 ft 417 kts
2026-05-07 17:42 49.81093 -0.90093 32967 ft 414 kts
2026-05-07 17:42 49.83946 -0.89617 32606 ft 410 kts
2026-05-07 17:42 49.86773 -0.89152 32223 ft 407 kts
2026-05-07 17:42 49.89580 -0.88715 31855 ft 404 kts
2026-05-07 17:43 49.92365 -0.88301 31494 ft 401 kts
2026-05-07 17:43 49.95134 -0.87900 31135 ft 398 kts
2026-05-07 17:43 49.97879 -0.87505 30795 ft 395 kts
2026-05-07 17:43 50.00615 -0.87111 30441 ft 393 kts
2026-05-07 17:44 50.03324 -0.86726 30117 ft 390 kts
2026-05-07 17:44 50.06025 -0.86345 29711 ft 387 kts
2026-05-07 17:44 50.08699 -0.85968 29352 ft 383 kts
2026-05-07 17:44 50.11340 -0.85595 28976 ft 380 kts
2026-05-07 17:45 50.13965 -0.85223 28597 ft 377 kts
2026-05-07 17:45 50.16564 -0.84855 28246 ft 373 kts
2026-05-07 17:45 50.19140 -0.84489 27874 ft 371 kts
2026-05-07 17:45 50.21701 -0.84125 27513 ft 368 kts
2026-05-07 17:46 50.24244 -0.83763 27154 ft 366 kts
2026-05-07 17:46 50.26770 -0.83403 26802 ft 363 kts
2026-05-07 17:46 50.29250 -0.83050 26460 ft 361 kts
2026-05-07 17:46 50.31751 -0.82693 26108 ft 359 kts
2026-05-07 17:47 50.34233 -0.82335 25764 ft 357 kts
2026-05-07 17:47 50.36705 -0.81974 25419 ft 356 kts
2026-05-07 17:47 50.39163 -0.81614 25076 ft 354 kts
2026-05-07 17:47 50.41609 -0.81255 24734 ft 353 kts
2026-05-07 17:48 50.44048 -0.80897 24399 ft 351 kts
2026-05-07 17:48 50.46480 -0.80540 24055 ft 350 kts
2026-05-07 17:48 50.48903 -0.80185 23713 ft 349 kts
2026-05-07 17:48 50.51323 -0.79829 23321 ft 348 kts
2026-05-07 17:49 50.53731 -0.79475 22948 ft 347 kts
2026-05-07 17:49 50.56127 -0.79122 22585 ft 345 kts
2026-05-07 17:49 50.58477 -0.78775 22241 ft 342 kts
2026-05-07 17:49 50.60846 -0.78426 21902 ft 340 kts
2026-05-07 17:50 50.63176 -0.77850 21597 ft 341 kts 14°
2026-05-07 17:50 50.65433 -0.76731 21368 ft 340 kts 17°
2026-05-07 17:50 50.67682 -0.75513 21112 ft 343 kts 17°
2026-05-07 17:50 50.69946 -0.74271 20861 ft 346 kts 17°
2026-05-07 17:51 50.72223 -0.73027 20612 ft 345 kts 17°
2026-05-07 17:51 50.74491 -0.71802 20356 ft 344 kts 17°
2026-05-07 17:51 50.76750 -0.70591 20104 ft 342 kts 17°
2026-05-07 17:51 50.79000 -0.69393 19856 ft 341 kts 17°
2026-05-07 17:52 50.81255 -0.68196 19607 ft 340 kts 17°
2026-05-07 17:52 50.83491 -0.67011 19363 ft 339 kts 17°
2026-05-07 17:52 50.85723 -0.65829 19130 ft 337 kts 17°
2026-05-07 17:52 50.87941 -0.64655 19085 ft 336 kts 17°
2026-05-07 17:53 50.90156 -0.63481 19047 ft 335 kts 17°
2026-05-07 17:53 50.92358 -0.62312 19039 ft 334 kts 17°
2026-05-07 17:53 50.94541 -0.61155 19051 ft 335 kts 17°
2026-05-07 17:53 50.96746 -0.59983 19045 ft 335 kts 17°
2026-05-07 17:54 50.98962 -0.58805 19050 ft 335 kts 17°
2026-05-07 17:54 51.01176 -0.57626 19046 ft 335 kts 17°
2026-05-07 17:54 51.03390 -0.56447 19046 ft 335 kts 17°
2026-05-07 17:54 51.05603 -0.55266 19047 ft 335 kts 17°
2026-05-07 17:55 51.07813 -0.54085 19045 ft 335 kts 17°
2026-05-07 17:55 51.10021 -0.52905 19045 ft 335 kts 17°
2026-05-07 17:55 51.12240 -0.51718 18825 ft 338 kts 17°
2026-05-07 17:55 51.14464 -0.50527 18589 ft 336 kts 17°
2026-05-07 17:56 51.16673 -0.49342 18351 ft 335 kts 17°
2026-05-07 17:56 51.18881 -0.48156 18106 ft 333 kts 17°
2026-05-07 17:56 51.21063 -0.46984 18018 ft 332 kts 17°
2026-05-07 17:56 51.23257 -0.45805 17726 ft 333 kts 17°
2026-05-07 17:57 51.25446 -0.44626 17460 ft 331 kts 17°
2026-05-07 17:57 51.26895 -0.43845 17284 ft 331 kts 17°
2026-05-07 17:57 51.29805 -0.42276 16931 ft 329 kts 17°
2026-05-07 17:57 51.31967 -0.41108 16665 ft 326 kts 17°
2026-05-07 17:58 51.34081 -0.39965 16421 ft 322 kts 18°
2026-05-07 17:58 51.36200 -0.38818 16160 ft 320 kts 18°
2026-05-07 17:58 51.38338 -0.37661 16085 ft 323 kts 18°
2026-05-07 17:58 51.40468 -0.36507 16054 ft 322 kts 18°
2026-05-07 17:59 51.42583 -0.35360 16048 ft 320 kts 18°
2026-05-07 17:59 51.44675 -0.34120 16041 ft 321 kts 22°
2026-05-07 17:59 51.46710 -0.32612 15946 ft 324 kts 25°
2026-05-07 17:59 51.48740 -0.31013 15683 ft 325 kts 26°
2026-05-07 18:00 51.50745 -0.29422 15429 ft 325 kts 26°
2026-05-07 18:00 51.52772 -0.27826 15162 ft 323 kts 25°
2026-05-07 18:00 51.54795 -0.26248 14735 ft 323 kts 25°
2026-05-07 18:00 51.56798 -0.24697 14312 ft 316 kts 25°
2026-05-07 18:01 51.58766 -0.23179 13908 ft 311 kts 25°
2026-05-07 18:01 51.60697 -0.21690 13449 ft 306 kts 25°
2026-05-07 18:01 51.62608 -0.20219 12922 ft 303 kts 25°
2026-05-07 18:01 51.64502 -0.18760 12402 ft 301 kts 25°
2026-05-07 18:02 51.68258 -0.15865 11384 ft 297 kts 25°
2026-05-07 18:02 51.70115 -0.14432 10885 ft 295 kts 25°
2026-05-07 18:02 51.71960 -0.13007 10395 ft 293 kts 25°
2026-05-07 18:03 51.73791 -0.11592 9905 ft 291 kts 25°
2026-05-07 18:03 51.75616 -0.10193 9362 ft 289 kts 24°
2026-05-07 18:03 51.77447 -0.08890 8836 ft 286 kts 23°
2026-05-07 18:03 51.79273 -0.07626 8311 ft 284 kts 23°
2026-05-07 18:04 51.81081 -0.06376 7798 ft 282 kts 22°
2026-05-07 18:04 51.82878 -0.05127 7287 ft 280 kts 23°
2026-05-07 18:04 51.84674 -0.03958 6781 ft 278 kts 14°
2026-05-07 18:04 51.86576 -0.03841 6263 ft 274 kts 346°
2026-05-07 18:05 51.88231 -0.05137 5870 ft 265 kts 318°
2026-05-07 18:05 51.89381 -0.07400 5498 ft 257 kts 301°
2026-05-07 18:05 51.89980 -0.10064 5086 ft 251 kts 272°
2026-05-07 18:05 51.89681 -0.12758 4809 ft 241 kts 242°
2026-05-07 18:06 51.88625 -0.14761 4546 ft 231 kts 215°
2026-05-07 18:06 51.87174 -0.15785 4286 ft 229 kts 188°
2026-05-07 18:06 51.85606 -0.15606 4028 ft 228 kts 161°
2026-05-07 18:06 51.84250 -0.14318 3782 ft 228 kts 137°
2026-05-07 18:07 51.83302 -0.12268 3545 ft 228 kts 123°
2026-05-07 18:07 51.82424 -0.10136 3309 ft 228 kts 126°
2026-05-07 18:07 51.81535 -0.08059 3077 ft 221 kts 126°
2026-05-07 18:07 51.80669 -0.06053 2836 ft 213 kts 126°
2026-05-07 18:08 51.79839 -0.04118 2592 ft 204 kts 126°
2026-05-07 18:08 51.79065 -0.02299 2506 ft 188 kts 126°
2026-05-07 18:08 51.78354 -0.00638 2482 ft 171 kts 126°
2026-05-07 18:08 51.77719 0.00873 2458 ft 157 kts 126°
2026-05-07 18:09 51.77096 0.02355 2495 ft 162 kts 126°
2026-05-07 18:09 51.76550 0.03931 2476 ft 160 kts 104°
2026-05-07 18:09 51.76822 0.05588 2505 ft 164 kts 50°
2026-05-07 18:09 51.77625 0.06958 2499 ft 171 kts 53°
2026-05-07 18:10 51.78434 0.08348 2494 ft 169 kts 49°
2026-05-07 18:10 51.79280 0.09644 2491 ft 165 kts 45°
2026-05-07 18:10 51.80130 0.10919 2366 ft 170 kts 47°
2026-05-07 18:10 51.80965 0.12168 2195 ft 156 kts 47°
2026-05-07 18:11 51.81744 0.13340 1967 ft 150 kts 47°
2026-05-07 18:11 51.82245 0.14093 1841 ft 147 kts 47°
2026-05-07 18:11 51.83238 0.15585 1568 ft 146 kts 47°
2026-05-07 18:11 51.83990 0.16714 1398 ft 148 kts 48°
2026-05-07 18:12 51.84736 0.17834 1187 ft 144 kts 49°
2026-05-07 18:12 51.85459 0.18919 981 ft 139 kts 46°
2026-05-07 18:12 51.86166 0.19980 830 ft 140 kts 48°
2026-05-07 18:12 51.86887 0.21059 593 ft 143 kts 45°
2026-05-07 18:13 51.87608 0.22132 396 ft 138 kts 48°
2026-05-07 18:13 51.88276 0.23144 336 ft 117 kts 42°
2026-05-07 18:13 51.88710 0.23794 340 ft 42 kts 43°
2026-05-07 18:13 51.88871 0.24179 352 ft 38 kts 71°
2026-05-07 18:14 51.88916 0.24420 351 ft 15 kts 73°
2026-05-07 18:14 51.88916 0.24581 355 ft 15 kts 59°
2026-05-07 18:14 51.88985 0.24695 351 ft 14 kts 39°
2026-05-07 18:14 51.89056 0.24800 355 ft 15 kts 43°
2026-05-07 18:15 51.89148 0.24940 356 ft 22 kts 43°
2026-05-07 18:15 51.89256 0.25145 358 ft 24 kts 58°
2026-05-07 18:15 51.89365 0.25336 354 ft 23 kts 42°
2026-05-07 18:15 51.89480 0.25507 351 ft 22 kts 43°
2026-05-07 18:16 51.89591 0.25674 351 ft 21 kts 45°
2026-05-07 18:16 51.89546 0.25848 351 ft 20 kts 147°
2026-05-07 18:16 51.89485 0.25936 355 ft 11 kts 133°
2026-05-07 18:16 51.89433 0.26028 357 ft 11 kts 132°
2026-05-07 18:17 51.89412 0.26048 358 ft 3 kts 167°
2026-05-07 18:17 51.89401 0.26039 354 ft 3 kts 227°
2026-05-07 18:17 51.89387 0.26017 359 ft 0 kts 222°
2026-05-07 18:18 51.89382 0.26010 358 ft 2 kts 224°
2026-05-07 18:18 51.89374 0.25996 351 ft 0 kts 223°